Dothan, AL

11:21 AM CDT on July 25, 2017 (GMT -0500)
Dothan Regional

Weather History for KDHN - November, 2011

Change the Weather History Date:

Saturday, November 26, 2011

  Actual Average Record
Temperature  
Mean Temperature 68 °F 56 °F  
Max Temperature 75 °F 68 °F 83 °F (1967)
Min Temperature 62 °F 44 °F 20 °F (1950)
Degree Days  
Heating Degree Days 0 10  
Month to date heating degree days 177  
Since 1 July heating degree days 236  
Cooling Degree Days 4    
Growing Degree Days 18 (Base 50)    
Moisture  
Dew Point 55 °F    
Average Humidity 69    
Maximum Humidity 81    
Minimum Humidity 45    
Precipitation  
Precipitation 0.00 in 0.17 in 4.01 in (2007)
Month to date precipitation 3.48  
Year to date precipitation 48.87  
Sea Level Pressure  
Sea Level Pressure 30.19 in    
Wind  
Wind Speed 8 mph (SE)    
Max Wind Speed 15 mph    
Max Gust Speed 18 mph    
Visibility 10 miles    
Events      
T = Trace of Precipitation, MM = Missing Value Source: NWS Daily Summary

Daily Weather History Graph

Daily Weather History Graph

Search for Another Location

Airport or City:

Trip Planner

Search our weather history database for the weather conditions in past years. The results will help you decide how hot, cold, wet, or windy it might be!

Date:

Astronomy

Nov. 26, 2011 Rise Set
Actual Time 6:18 AM CST 4:39 PM CST
Civil Twilight 5:52 AM CST 5:05 PM CST
Nautical Twilight 5:22 AM CST 5:35 PM CST
Astronomical Twilight 4:53 AM CST 6:04 PM CST
Moon 7:45 AM CST (11/26) 6:13 PM CST (11/26)
Length of Visible Light 11h 13m
Length of Day
10h 20m
Waxing Crescent, 3% of the Moon is Illuminated
Nov 26
Waxing Crescent
Dec 2
First Quarter
Dec 10
Full
Dec 17
Last Quarter
Dec 24
New

Hourly Weather History & Observations

Time (CST) Temp. Dew Point Humidity Pressure Visibility Wind Dir Wind Speed Gust Speed Precip Events Conditions
12:53 AM 62.1 °F 53.1 °F 72% 30.22 in 10.0 mi ESE 6.9 mph - N/A   Overcast
1:53 AM 62.1 °F 54.0 °F 75% 30.22 in 10.0 mi ESE 4.6 mph - N/A   Overcast
2:53 AM 63.0 °F 55.0 °F 75% 30.22 in 10.0 mi ESE 9.2 mph - N/A   Overcast
3:53 AM 62.1 °F 55.0 °F 78% 30.22 in 10.0 mi ESE 5.8 mph - N/A   Mostly Cloudy
4:53 AM 62.1 °F 55.0 °F 78% 30.23 in 10.0 mi ESE 5.8 mph - N/A   Overcast
5:53 AM 62.1 °F 55.9 °F 80% 30.24 in 10.0 mi ESE 5.8 mph - N/A   Overcast
6:53 AM 62.1 °F 55.9 °F 80% 30.25 in 10.0 mi ESE 5.8 mph - N/A   Overcast
7:53 AM 63.0 °F 57.0 °F 81% 30.27 in 10.0 mi ESE 3.5 mph - N/A   Overcast
8:53 AM 64.9 °F 57.0 °F 75% 30.28 in 10.0 mi SE 8.1 mph - N/A   Overcast
9:53 AM 66.9 °F 57.0 °F 70% 30.27 in 10.0 mi SE 9.2 mph - N/A   Overcast
10:53 AM 70.0 °F 55.9 °F 61% 30.25 in 10.0 mi SE 9.2 mph - N/A   Overcast
11:53 AM 72.0 °F 57.0 °F 59% 30.22 in 10.0 mi SE 11.5 mph - N/A   Overcast
12:53 PM 75.0 °F 57.0 °F 53% 30.18 in 10.0 mi South 11.5 mph - N/A   Scattered Clouds
1:53 PM 73.0 °F 54.0 °F 51% 30.16 in 10.0 mi SSE 15.0 mph 18.4 mph N/A   Mostly Cloudy
2:53 PM 75.9 °F 53.1 °F 45% 30.14 in 10.0 mi SSE 15.0 mph - N/A   Partly Cloudy
3:53 PM 73.0 °F 53.1 °F 49% 30.13 in 10.0 mi South 10.4 mph - N/A   Partly Cloudy
4:53 PM 71.1 °F 54.0 °F 55% 30.14 in 10.0 mi SSE 11.5 mph - N/A   Overcast
5:53 PM 69.1 °F 54.0 °F 58% 30.14 in 10.0 mi SSE 11.5 mph - N/A   Clear
6:53 PM 66.9 °F 55.0 °F 66% 30.14 in 10.0 mi SE 10.4 mph - N/A   Scattered Clouds
7:53 PM 62.6 °F 55.4 °F 77% 30.15 in 10.0 mi SSE 6.9 mph - N/A   Partly Cloudy
8:53 PM 64.0 °F 55.9 °F 75% 30.13 in 10.0 mi SE 6.9 mph - N/A   Clear
9:53 PM 62.6 °F 55.4 °F 77% 30.13 in 10.0 mi SSE 6.9 mph - N/A   Scattered Clouds
10:53 PM 62.1 °F 55.9 °F 80% 30.12 in 10.0 mi SSE 8.1 mph - N/A   Mostly Cloudy
11:53 PM 63.0 °F 55.9 °F 78% 30.11 in 10.0 mi SE 9.2 mph - N/A   Mostly Cloudy